Hlavní strana
METAR-TAF:

METAR-TAF

Letiště :

Darlington County Jetport

Darlington, Jižní Karolína, Spojené státy americké

zeměpisná šířka: 34-26-57N, zeměpisná délka: 079-53-25W, výška: 59 m

Aktuální stav počasí

Zpráva byla vytvořena před 23 minutami, v 12:56 UTC
Bezvětří
Teplota 7°C
Vlhkost vzduchu 93%
Tlak 1027 hPa
Viditelnost: 14.5 km
Polojasno ve výšce 6000 ft

METAR: KUDG 251256Z AUTO 00000KT 9SM SCT060 07/06 A3033 RMK AO2 SLP274 T00670056

Čas: 08:19 (13:19 UTC)


TAF: chybějící

Stav a předpovědi počasí z více než 4 000 letišť (zprávy METAR a TAF).

Červené a žluté tečky na mapě představují dostupné meteorologické stanice.

Když kurzor umístíte na tečku, zobrazí se název stanice.

Pak kliknutím zobrazíte stav a předpověď počasí.

Chcete-li změnit mapu, kliknutím na zelené tlačítko se znaménkem +mapu přiblížíte, kliknutím na zelené tlačítko se znaménkem – mapu oddálíte a kliknutím na zelené šipky přejdete na sousední mapy.


METAR-TAF: